Retour au catalogue

COSMOS 586

ActifMilitairePO
NORAD 6828·PAYLOAD·🇷🇺 Russia

Lancé Sep 14, 1973 depuis Plesetsk Cosmodrome

Loading…

Prochains Passages (prochaines 24 heures)

TLE

FraisSource: Space-Track

Époque: Sep 14, 2026, 13:26 UTC

1 06828U 73065A   26257.55982896  .00000033  00000-0  18273-4 0  9990
2 06828  82.9370  96.9275 0026628 314.0439  63.2678 13.75382914659185

Suivez COSMOS 586 en temps réel avec AllMySat

Download on the App Store